Weather at Hillsboro Municipal Airport

Public forecast

Using degrees Fahrenheit for public forecast. Weather courtesy of forecast.io.

Closest aviation weather report (METAR) to Hillsboro Municipal Airport

Report is more than 6 hours old.

Closest report is Hammars Farm Airport, 18.8 nm (34.9 km) ESE. Retrieved 2010/12/09 21:00 UTC (11 years ago):

MN01 092200 CH

Closest aviation forecast (TAF) to Hillsboro Municipal Airport

Closest forecast is Hector International Airport, 28.2 nm (52.2 km) SSE. Retrieved 2022/01/25 06:30 UTC (5 hours ago):

TAF KFAR 250527Z 2506/2606 29008KT P6SM SKC FM260100 20008KT P6SM FEW250